sat.trackr.live / text

‹ back to catalog

STARLINK-36865

NORAD 67930 · 2026-036AC

PAYLOAD ACTIVE UNKNOWN

§ Identity

Operator
Country
US
Launch date
2026-02-22
Launch site
AFETR
Launch vehicle
Mass (kg)
RCS (m²)

Purposes: comms

External: N2YO · Heavens-Above · Gunter

§ Orbital elements

Epoch: 2026-09-19T14:43:59.239776Z

Period
94.27 min
Inclination
43.0008°
Eccentricity
0.0000470
Mean motion
15.27591058 rev/d
Perigee alt
482.7 km
Apogee alt
483.3 km
Semi-major
6,861.2 km
B*
5.0391e-4
RAAN
229.7768°
Arg perigee
26.4261°
Mean anomaly
333.6614°
Rev number
3,338

§ Raw data

STARLINK-368651 67930U 26036AC  26262.61388009  .00013635  00000+0  50391-3 0  99932 67930  43.0008 229.7768 0000470  26.4261 333.6614 15.27591058 33381

JSON: /api/v1/satellites/67930 · /tle

For live sub-satellite position, see the globe view (requires WebGL).

§ Visibility from observer

Set your observer location to see the next 7 days of passes ≥ 10°. The values pass through the URL so the page stays shareable.

No JS? Fill the form by hand. The geolocation button needs JavaScript.